Powrót do katalogu

STARLINK-5972

AktywnyŁącznośćSSO
NORAD 56362·PAYLOAD·🇺🇸 United States

Wystrzelony Apr 27, 2023 z Vandenberg Space Force Base

Loading…

Następne Przeloty (najbliższe 24 godziny)

TLE

ŚwieżeSource: CelesTrak SupGP

Epoka: Sep 15, 2026, 01:39 UTC

1 56362C 23058AX  26258.06923611 -.00085871  00000+0 -26647-2 0  2586
2 56362  97.2845 254.9016 0001659  96.6044 228.3612 15.33493673    15

Śledź STARLINK-5972 w czasie rzeczywistym z AllMySat

Download on the App Store